Location: Lombard
(41.8800°N, 88.0080°W)
Time: 13:17:18
(UTC-05:00)

CAS-4A - Visible Passes

Search period start: 24 May 2022 00:00
Search period end: 03 June 2022 00:00
Orbit: 525 x 536 km, 43.0° (Epoch: 24 May)

Date Brightness Start Highest point End Pass type
(mag) Time Alt. Az. Time Alt. Az. Time Alt. Az.
24 May ? 21:10:53 10° W 21:14:57 74° N 21:18:59 10° E visible
24 May ? 22:51:00 10° WNW 22:54:52 74° SW 22:54:52 74° SW visible
25 May ? 20:58:37 10° W 21:02:41 74° N 21:06:44 10° E visible
25 May ? 22:38:43 10° W 22:42:44 67° SSW 22:42:55 66° S visible
26 May ? 20:46:21 10° W 20:50:24 75° N 20:54:27 10° E visible
26 May ? 22:26:26 10° W 22:30:25 58° SSW 22:30:56 53° SSE visible
27 May ? 22:14:09 10° W 22:18:04 50° SSW 22:18:57 41° SSE visible
28 May ? 22:01:52 10° W 22:05:43 42° SSW 22:06:58 32° SSE visible
29 May ? 21:49:36 10° W 21:53:20 36° SSW 21:55:01 25° SSE visible
30 May ? 21:37:21 10° W 21:40:56 30° SSW 21:43:04 19° SSE visible
31 May ? 21:25:07 10° W 21:28:30 26° SSW 21:31:10 14° SSE visible
01 Jun ? 21:12:55 10° W 21:16:03 21° SW 21:19:09 10° SSE visible
02 Jun ? 21:00:48 10° W 21:03:34 18° SW 21:06:19 10° S visible
